STARLINK-1012 (44718 NORAD) Tracking and Keplerian Element Data

This shows tracking and keplerian element data for the satellite.

Feedback or suggestion? Click here.




ElementValue
Catalog44718
NameSTARLINK-1012
Epoch Orbit1140
Epoch Day22.91667824
Epoch Year2020
RAAN170.985
Inclination53.0055
Eccentricity0.0003367
Argument of Perigee27.2003
Mean Anonmoly173.542
Mean Motion15.73227741
Decay Rate0.00038235
L11 44718U 19074F 20022.91667824 .00038235 00000-0 27517-3 0 9990
L22 44718 53.0055 170.9850 0003367 27.2003 173.5420 15.73227741 11404

Live tracking and technical data element details for STARLINK-1012 (NORAD 44718). STARLINK-1012 can be tracked NOW for your location showing map with azimuth and elevation plus other details from your city location.

Track the satellite on the map from your city or location and see movement details for azimuth, elevation, latitude, longitude, range, height, and movement on the map or in text.







IsCatalogInMostPopularTable: catalog: 44718, numindb: 8
Update: records affected: 1



GetName: 44718 STARLINK-1012

Hit Count: updated at: Fri, 24 Jan 2020 14:19:31 GMT